STARLINK-36287

Last updated on Tue Mar 10 2026 00:02:05 GMT+0000 (Coordinated Universal Time)

1 67708U 26025R 26068.29171757 .00281528 00000+0 18236-2 0 9991 2 67708 97.2843 179.9452 0001600 10.6068 349.5230 15.75230692 5896
UTC large
Height (km)
Speed (km/s)
/
Latitude / Longitude
Inclination (degrees)
Orbital Period (minutes)
Azimuth
Elevation
Range (km)
Doppler Factor

Next 0 passes for location: London (51.5072 / 0.1276)

Sorry there are no passes over London.